Weather History for Lakeville, MN

Change the Weather History Date:

Tuesday, March 12, 2013

  Actual Average Record
Temperature  
Mean Temperature 22 °F -  
Max Temperature 26 °F 37 °F 67 °F (1990)
Min Temperature 17 °F 21 °F -13 °F (1956)
Degree Days  
Heating Degree Days 44    
Moisture  
Dew Point 15 °F    
Average Humidity 75    
Maximum Humidity 86    
Minimum Humidity 59    
Precipitation  
Precipitation 0.00 in - - ()
Sea Level Pressure  
Sea Level Pressure 29.94 in    
Wind  
Wind Speed 11 mph (WNW)    
Max Wind Speed 24 mph    
Max Gust Speed 30 mph    
Visibility 8 miles    
Events Snow    
Averages and records for this station are not official NWS values.
T = Trace of Precipitation, MM = Missing Value Source: NWS Daily Summary

Daily Weather History Graph

Daily Weather History Graph

Search for Another Location

Airport:

Trip Planner

Search our weather history database for the weather conditions in past years. The results will help you decide how hot, cold, wet, or windy it might be!

Date:

Astronomy

Mar. 12, 2013 Rise Set
Actual Time 7:30 AM CDT 7:15 PM CDT
Civil Twilight 7:01 AM CDT 7:44 PM CDT
Nautical Twilight 6:27 AM CDT 8:18 PM CDT
Astronomical Twilight 5:53 AM CDT 8:52 PM CDT
Moon 7:33 AM CDT (3/12) 8:36 PM CDT (3/12)
Length of Visible Light 12h 43m
Length of Day
11h 45m
New Moon, 1% of the Moon is Illuminated
Mar 12
New Moon
Mar 19
First Quarter
Mar 27
Full
Apr 2
Last Quarter
Apr 10
New

Hourly Weather History & Observations

Time (CDT) Temp. Windchill Dew Point Humidity Pressure Visibility Wind Dir Wind Speed Gust Speed Precip Events Conditions
12:05 AM 19.4 °F 9.5 °F 15.8 °F 86% 29.84 in 10.0 mi West 8.1 mph - N/A   Clear
12:25 AM 17.6 °F 8.2 °F 14.0 °F 86% 29.84 in 10.0 mi West 6.9 mph - N/A   Clear
12:45 AM 17.6 °F 7.3 °F 12.2 °F 79% 29.84 in 10.0 mi West 8.1 mph - N/A   Clear
1:05 AM 17.6 °F 8.2 °F 12.2 °F 79% 29.83 in 10.0 mi West 6.9 mph - N/A   Unknown
1:25 AM 19.4 °F 12.8 °F 14.0 °F 80% 29.83 in 10.0 mi West 4.6 mph - N/A   Overcast
1:45 AM 19.4 °F 10.4 °F 12.2 °F 74% 29.83 in 10.0 mi West 6.9 mph - N/A   Overcast
2:05 AM 19.4 °F 10.4 °F 12.2 °F 74% 29.83 in 10.0 mi West 6.9 mph - N/A   Overcast
2:25 AM 21.2 °F 11.7 °F 12.2 °F 68% 29.83 in 10.0 mi West 8.1 mph - N/A   Overcast
2:45 AM 21.2 °F 10.9 °F 12.2 °F 68% 29.83 in 10.0 mi West 9.2 mph - N/A   Overcast
3:05 AM 21.2 °F 10.1 °F 14.0 °F 74% 29.83 in 10.0 mi West 10.4 mph - N/A   Overcast
3:25 AM 21.2 °F 10.9 °F 15.8 °F 80% 29.83 in 10.0 mi West 9.2 mph - N/A   Overcast
3:44 AM 21.2 °F 11.7 °F 15.8 °F 80% 29.82 in 10.0 mi West 8.1 mph - N/A   Overcast
4:05 AM 21.2 °F 10.9 °F 15.8 °F 80% 29.82 in 7.0 mi West 9.2 mph - N/A   Overcast
4:25 AM 21.2 °F 12.6 °F 15.8 °F 80% 29.82 in 10.0 mi West 6.9 mph - N/A   Overcast
4:44 AM 21.2 °F 11.7 °F 17.6 °F 86% 29.82 in 10.0 mi West 8.1 mph - N/A Snow Light Snow
5:05 AM 21.2 °F 11.7 °F 17.6 °F 86% 29.83 in 10.0 mi WNW 8.1 mph - N/A   Overcast
5:25 AM 21.2 °F 11.7 °F 17.6 °F 86% 29.83 in 5.0 mi West 8.1 mph - N/A Snow Light Snow
5:44 AM 21.2 °F 11.7 °F 17.6 °F 86% 29.84 in 4.0 mi West 8.1 mph - N/A Snow Light Snow
6:05 AM 21.2 °F 11.7 °F 17.6 °F 86% 29.84 in 7.0 mi WNW 8.1 mph - N/A Snow Light Snow
6:25 AM 21.2 °F 10.9 °F 17.6 °F 86% 29.85 in 7.0 mi WNW 9.2 mph - N/A Snow Light Snow
6:44 AM 21.2 °F 10.9 °F 17.6 °F 86% 29.85 in 10.0 mi NW 9.2 mph - N/A   Overcast
7:05 AM 21.2 °F 10.1 °F 17.6 °F 86% 29.85 in 7.0 mi NW 10.4 mph - N/A Snow Light Snow
7:25 AM 21.2 °F 10.9 °F 15.8 °F 80% 29.85 in 10.0 mi WNW 9.2 mph - N/A   Overcast
7:44 AM 19.4 °F 7.2 °F 15.8 °F 86% 29.86 in 7.0 mi WNW 11.5 mph - N/A Snow Light Snow
8:05 AM 19.4 °F 8.6 °F 15.8 °F 86% 29.86 in 7.0 mi WNW 9.2 mph - N/A Snow Light Snow
8:25 AM 19.4 °F 8.6 °F 15.8 °F 86% 29.87 in 5.0 mi WNW 9.2 mph - N/A Snow Light Snow
8:44 AM 21.2 °F 9.5 °F 15.8 °F 80% 29.88 in 7.0 mi WNW 11.5 mph - N/A Snow Light Snow
9:05 AM 21.2 °F 9.5 °F 15.8 °F 80% 29.89 in 10.0 mi WNW 11.5 mph - N/A   Overcast
9:25 AM 21.2 °F 8.9 °F 15.8 °F 80% 29.89 in 10.0 mi WNW 12.7 mph - N/A   Overcast
9:44 AM 21.2 °F 8.3 °F 15.8 °F 80% 29.90 in 10.0 mi WNW 13.8 mph - N/A   Mostly Cloudy
10:05 AM 23.0 °F 10.6 °F 15.8 °F 74% 29.90 in 10.0 mi NW 13.8 mph - N/A   Mostly Cloudy
10:25 AM 23.0 °F 10.6 °F 15.8 °F 74% 29.90 in 7.0 mi NW 13.8 mph - N/A   Overcast
10:45 AM 24.8 °F 14.0 °F 15.8 °F 69% 29.91 in 10.0 mi WNW 11.5 mph - N/A   Mostly Cloudy
11:05 AM 24.8 °F 12.9 °F 15.8 °F 69% 29.92 in 10.0 mi WNW 13.8 mph - N/A   Mostly Cloudy
11:25 AM 24.8 °F 12.9 °F 15.8 °F 69% 29.92 in 10.0 mi WNW 13.8 mph - N/A   Mostly Cloudy
11:44 AM 24.8 °F 11.5 °F 15.8 °F 69% 29.92 in 10.0 mi WNW 17.3 mph - N/A   Mostly Cloudy
12:05 PM 24.8 °F 12.4 °F 15.8 °F 69% 29.93 in 10.0 mi NW 15.0 mph - N/A   Overcast
12:25 PM 24.8 °F 11.9 °F 17.6 °F 74% 29.94 in 7.0 mi NW 16.1 mph - N/A Snow Light Snow
12:44 PM 24.8 °F 11.9 °F 17.6 °F 74% 29.94 in 4.0 mi WNW 16.1 mph - N/A Snow Light Snow
1:05 PM 24.8 °F 12.9 °F 17.6 °F 74% 29.95 in 7.0 mi WNW 13.8 mph - N/A Snow Light Snow
1:25 PM 24.8 °F 11.5 °F 17.6 °F 74% 29.95 in 7.0 mi WNW 17.3 mph 21.9 mph N/A Snow Light Snow
1:44 PM 26.6 °F 13.8 °F 17.6 °F 69% 29.95 in 7.0 mi WNW 17.3 mph 24.2 mph N/A Snow Light Snow
2:05 PM 24.8 °F 11.9 °F 17.6 °F 74% 29.95 in 5.0 mi NW 16.1 mph 20.7 mph N/A Snow Light Snow
2:25 PM 24.8 °F 11.5 °F 19.4 °F 80% 29.95 in 1.5 mi West 17.3 mph - N/A Snow Light Snow
2:44 PM 24.8 °F 12.4 °F 19.4 °F 80% 29.96 in 1.8 mi WNW 15.0 mph 19.6 mph N/A Snow Light Snow
3:05 PM 24.8 °F 11.5 °F 19.4 °F 80% 29.96 in 1.0 mi WNW 17.3 mph - N/A Snow Light Snow
3:24 PM 24.8 °F 11.5 °F 19.4 °F 80% 29.96 in 1.8 mi WNW 17.3 mph 20.7 mph N/A Snow Light Snow
3:45 PM 24.8 °F 9.3 °F 19.4 °F 80% 29.96 in 1.8 mi WNW 24.2 mph - N/A Snow Light Snow
4:05 PM 24.8 °F 10.0 °F 17.6 °F 74% 29.97 in 2.0 mi WNW 21.9 mph 25.3 mph N/A Snow Light Snow
4:24 PM 24.8 °F 10.3 °F 17.6 °F 74% 29.97 in 4.0 mi WNW 20.7 mph 25.3 mph N/A Snow Light Snow
4:45 PM 24.8 °F 11.1 °F 17.6 °F 74% 29.98 in 4.0 mi WNW 18.4 mph - N/A Snow Light Snow
5:05 PM 24.8 °F 11.9 °F 17.6 °F 74% 29.99 in 10.0 mi WNW 16.1 mph 23.0 mph N/A   Overcast
5:25 PM 24.8 °F 11.5 °F 17.6 °F 74% 29.99 in 5.0 mi WNW 17.3 mph - N/A Snow Light Snow
5:45 PM 24.8 °F 11.9 °F 17.6 °F 74% 30.00 in 5.0 mi NW 16.1 mph 25.3 mph N/A Snow Light Snow
6:05 PM 24.8 °F 10.7 °F 17.6 °F 74% 30.01 in 4.0 mi NW 19.6 mph 23.0 mph N/A Snow Light Snow
6:25 PM 23.0 °F 9.2 °F 19.4 °F 86% 30.02 in 1.0 mi NW 17.3 mph 29.9 mph N/A Snow Snow
6:45 PM 23.0 °F 11.7 °F 15.8 °F 74% 30.03 in 10.0 mi WNW 11.5 mph - N/A   Mostly Cloudy
7:05 PM 23.0 °F 11.1 °F 15.8 °F 74% 30.04 in 10.0 mi WNW 12.7 mph - N/A   Mostly Cloudy
7:25 PM 24.8 °F 11.5 °F 12.2 °F 59% 30.05 in 10.0 mi NW 17.3 mph 20.7 mph N/A   Overcast
7:45 PM 24.8 °F 11.5 °F 12.2 °F 59% 30.06 in 10.0 mi NW 17.3 mph 23.0 mph N/A   Overcast
8:05 PM 23.0 °F 10.1 °F 10.4 °F 59% 30.07 in 10.0 mi NW 15.0 mph - N/A   Mostly Cloudy
8:25 PM 23.0 °F 10.6 °F 10.4 °F 59% 30.08 in 10.0 mi NW 13.8 mph - N/A   Scattered Clouds
8:45 PM 23.0 °F 11.1 °F 12.2 °F 63% 30.10 in 10.0 mi NW 12.7 mph - N/A   Mostly Cloudy
9:05 PM 23.0 °F 10.1 °F 12.2 °F 63% 30.10 in 10.0 mi NW 15.0 mph 24.2 mph N/A   Mostly Cloudy
9:25 PM 21.2 °F 10.1 °F 12.2 °F 68% 30.12 in 10.0 mi NW 10.4 mph - N/A   Scattered Clouds
9:45 PM 21.2 °F 8.3 °F 12.2 °F 68% 30.12 in 10.0 mi NW 13.8 mph 18.4 mph N/A   Clear
10:05 PM 21.2 °F 8.9 °F 10.4 °F 63% 30.13 in 10.0 mi NW 12.7 mph 18.4 mph N/A   Clear
10:25 PM 21.2 °F 8.9 °F 10.4 °F 63% 30.14 in 10.0 mi NW 12.7 mph - N/A   Clear
10:45 PM 21.2 °F 9.5 °F 10.4 °F 63% 30.14 in 10.0 mi NW 11.5 mph - N/A   Clear
11:05 PM 19.4 °F 9.5 °F 10.4 °F 68% 30.15 in 10.0 mi WNW 8.1 mph - N/A   Clear
11:25 PM 17.6 °F 5.7 °F 8.6 °F 68% 30.16 in 10.0 mi WNW 10.4 mph - N/A   Clear
11:45 PM 17.6 °F 5.7 °F 10.4 °F 73% 30.17 in 10.0 mi WNW 10.4 mph - N/A   Clear